Flag for Estonia Weather past 2 weeks in Narva, Estonia

Now
57 °F

Overcast.


Feels Like: 57 °F
Forecast: 46 / 62 °F
Wind: 3 mph from Northeast

Location: Narva

Current Time: Sep 1, 2014 at 5:12:01 PM

Latest Report: Sep 1, 2014 at 4:00 PM


Visibility: 13 mi

Pressure: 30.24 "Hg

Humidity: 77%

Dew point: 49 °F

Location of NarvaLocation

Historic Weather in Narva — Graph

°F

Narva temperature yesterday

Maximum temperature yesterday: 58 °F (at 3:00 PM)
Minimum temperature yesterday: 44 °F (at 7:00 AM)
Average temperature yesterday: 52 °F

Past Weeks' High & Low Weather Summary

 TemperatureHumidityPressure
High70 °F (Aug 18, 4:00 PM)100% (Aug 26, 5:00 AM)30.26 "Hg (Aug 26, 5:00 AM)
Low43 °F (Aug 29, 3:00 AM)48% (Aug 18, 4:00 PM)29.29 "Hg (Aug 26, 6:00 AM)
Average57 °F84%29.75 "Hg
* Reported Aug 17 3:00 PM — Sep 1 3:00 PM, Narva, Weather by CustomWeather, © 2014

Note: Actual official high and low records may vary slightly from our data, if they occured in-between our weather recording intervals... More about our weather records

Advertising

Narva weather history for previous 24 hours

 ConditionsComfort  
Time TempWeatherWind HumidityBarometerVisibility
3:00 PM
Sep 1
57 °FOvercast.3 mph77%30.24 "Hg12 mi
2:00 PM58 °FOvercast.5 mph75%30.25 "Hg12 mi
1:00 PM57 °FOvercast.3 mph76%30.25 "Hg12 mi
12:00 PM56 °FOvercast.3 mph76%30.26 "Hg12 mi
11:00 AM55 °FOvercast.5 mph78%30.26 "Hg12 mi
10:00 AM54 °FOvercast.3 mph84%30.25 "Hg12 mi
9:00 AM53 °FOvercast.3 mph87%30.25 "Hg12 mi
8:00 AM51 °FOvercast.3 mph90%30.26 "Hg12 mi
7:00 AM50 °FOvercast.3 mph94%30.25 "Hg12 mi
6:00 AM49 °FOvercast.2 mph94%30.24 "Hg12 mi
5:00 AM49 °FOvercast.2 mph95%30.24 "Hg12 mi
4:00 AM50 °FOvercast.2 mph93%30.24 "Hg12 mi
3:00 AM51 °FOvercast.3 mph91%30.24 "Hg12 mi
2:00 AM51 °FOvercast.3 mph89%30.24 "Hg12 mi
1:00 AM51 °FOvercast.3 mph90%30.24 "Hg12 mi
12:00 AM52 °FOvercast.2 mph91%30.23 "Hg12 mi
11:00 PM
Aug 31
52 °FOvercast.3 mph91%30.22 "Hg12 mi
10:00 PM53 °FOvercast.2 mph92%30.22 "Hg12 mi
9:00 PM53 °FOvercast.2 mph92%30.21 "Hg12 mi
8:00 PM53 °FOvercast.2 mph91%30.20 "Hg12 mi
7:00 PM54 °FOvercast.2 mph89%30.20 "Hg12 mi
6:00 PM54 °FLight rain. Overcast.3 mph92%30.20 "Hg6 mi
5:00 PM57 °FOvercast.3 mph74%30.19 "Hg12 mi
Weather by CustomWeather, © 2014

See weather overviewHow to use our weather pages